Погода в Миритиницах

Россия / Псковская область     56°38′52″N   29°49′38″E
темп.,
°C
ветер,
м/с
пор.,
м/с
влажн.,
%
обл.,
%
осадки,
мм/ч
давл.,
гПа
погр.,
м
8 марта, пн
пн800:00−5сз4991100 0.4 999716
03:00−7сз4119290 0.6 1001512
06:00−9сз4109454 0.0 1003490
09:00−9ссз499177 0.2 1006686
12:00−7ссз5784100 0.2 1008784
15:00−6с5880100 0.3 1011927
18:00−7ссз3783100 0.1 1013900
21:00−11ссз279293 0.1 1015193
9 марта, вт
вт900:00−12ссз259664 0.0 1016112
03:00−13сз249874 0.0 101890
06:00−14сз229883 0.0 101969
09:00−13сз249263 0.0 1020161
12:00−8сз247764 0.0 1020632
15:00−6з237875 0.1 1020692
18:00−6ю2394100 0.4 1019253
21:00−6ю3695100 1.7 1020371
10 марта, ср
ср1000:00−6ююз1296100 1.0 102082
03:00−7в2396100 2.4 1021136
06:00−10в3695100 0.9 1021245
09:00−11в4894100 1.7 1023392
12:00−10в5891100 0.6 1024515
15:00−9вюв5889100 1.0 1025594
18:00−10вюв5992100 0.3 1025530
21:00−12вюв51193100 0.6 1026435
11 марта, чт
чт1100:00−13юв51093100 0.2 1026385
03:00−13юв4994100 0.4 1026333
06:00−13ююв4995100 0.1 1025316
09:00−13ююв51095100 0.1 1024286
12:00−8ююв488997 0.0 1023396
15:00−4ююв588257 0.0 1021781
18:00−5ююв5108694 0.0 1019732
21:00−7ююв6149197 0.1 1017712
12 марта, пт
пт1200:00−6ююв61491100 0.2 1015895
03:00−7ююв71590100 0.4 1011848
06:00−7юв81690100 0.2 1006843
09:00−6ююв81592100 1.8 10021024
12:00−4юв81492100 1.4 999979
15:00−2юв61194100 2.6 996693
18:00−1ююв3598100 2.3 995262
21:00+1юз3899100 2.8 996421